Tracking 29892 objects as of 21-Nov-2024
HD Live streaming from Space Station
objects crossing your sky now

DELTA 1 DEB

Track DELTA 1 DEB now!
10-day predictions


NORAD ID: 7152
Int'l Code: 1973-086DS
Perigee: 1,498.4 km
Apogee: 1,627.2 km
Inclination: 102.2 °
Period: 117.2 minutes
Semi major axis: 7933 km
RCS: 0.0666 m2 (small)
Launch date: November 6, 1973
Source: United States (US)
Launch site: AIR FORCE WESTERN TEST RANGE (AFWTR)

Note: This is SATELLITE DEBRIS
Your satellite tracking list
Your tracking list is empty




NASA's NSSDC Master Catalog

Two Line Element Set (TLE):
1  7152U 73086DS  24325.83936175  .00000018  00000-0  53569-3 0  9997
2  7152 102.2131 283.3101 0081212  18.3651   9.2244 12.28518339288587
Source of the keplerian elements: AFSPC